Weather History for Goshen, IN

Change the Weather History Date:

Saturday, February 25, 2012

  Actual Average Record
Temperature  
Mean Temperature 24 °F -  
Max Temperature 28 °F 38 °F 64 °F (1957)
Min Temperature 21 °F 21 °F -13 °F (1950)
Degree Days  
Heating Degree Days 40    
Moisture  
Dew Point 19 °F    
Average Humidity 74    
Maximum Humidity 85    
Minimum Humidity 66    
Precipitation  
Precipitation 0.00 in - - ()
Sea Level Pressure  
Sea Level Pressure 30.10 in    
Wind  
Wind Speed 18 mph (West)    
Max Wind Speed 24 mph    
Max Gust Speed 30 mph    
Visibility 8 miles    
Events Snow    
Averages and records for this station are not official NWS values.
T = Trace of Precipitation, MM = Missing Value Source: NWS Daily Summary

Daily Weather History Graph

Daily Weather History Graph

Search for Another Location

Airport:

Trip Planner

Search our weather history database for the weather conditions in past years. The results will help you decide how hot, cold, wet, or windy it might be!

Date:

Astronomy

Feb. 25, 2012 Rise Set
Actual Time 7:24 AM EST 6:28 PM EST
Civil Twilight 6:56 AM EST 6:56 PM EST
Nautical Twilight 6:24 AM EST 7:28 PM EST
Astronomical Twilight 5:52 AM EST 8:00 PM EST
Moon 8:44 AM EST (2/25) 10:32 PM EST (2/25)
Length of Visible Light 11h 59m
Length of Day
11h 03m
Waxing Crescent, 13% of the Moon is Illuminated
Feb 25
Waxing Crescent
Feb 29
First Quarter
Mar 8
Full
Mar 14
Last Quarter
Mar 22
New

Hourly Weather History & Observations

Time (EST) Temp. Windchill Dew Point Humidity Pressure Visibility Wind Dir Wind Speed Gust Speed Precip Events Conditions
12:53 AM 28.0 °F 14.6 °F 21.0 °F 75% 29.89 in 8.0 mi West 20.7 mph 29.9 mph 0.00 in Snow Light Snow
1:04 AM 28.4 °F 15.8 °F 21.2 °F 74% 29.87 in 6.0 mi West 18.4 mph - 0.00 in Snow Light Snow
1:43 AM 26.6 °F 12.4 °F 19.4 °F 74% 29.87 in 3.0 mi West 21.9 mph 29.9 mph 0.00 in Snow Light Snow
1:53 AM 27.0 °F 12.8 °F 19.9 °F 75% 29.90 in 4.0 mi West 21.9 mph 28.8 mph 0.00 in Snow Light Snow
2:53 AM 27.0 °F 13.9 °F 19.0 °F 72% 29.91 in 10.0 mi West 18.4 mph - 0.00 in   Overcast
3:28 AM 26.6 °F 13.8 °F 19.4 °F 74% 29.89 in 10.0 mi West 17.3 mph 27.6 mph N/A   Overcast
3:53 AM 26.1 °F 12.0 °F 18.0 °F 71% 29.93 in 10.0 mi West 20.7 mph 28.8 mph N/A   Overcast
4:25 AM 26.6 °F 13.1 °F 17.6 °F 69% 29.91 in 10.0 mi West 19.6 mph 26.5 mph N/A   Overcast
4:53 AM 26.1 °F 12.7 °F 19.0 °F 75% 29.95 in 7.0 mi West 18.4 mph 24.2 mph 0.00 in Snow Light Snow
5:45 AM 24.8 °F 11.1 °F 17.6 °F 74% 29.95 in 10.0 mi West 18.4 mph - 0.00 in   Overcast
5:53 AM 25.0 °F 11.3 °F 19.0 °F 78% 29.98 in 10.0 mi West 18.4 mph 25.3 mph 0.00 in   Overcast
6:10 AM 24.8 °F 12.4 °F 19.4 °F 80% 29.96 in 10.0 mi West 15.0 mph - N/A   Overcast
6:53 AM 25.0 °F 11.7 °F 18.0 °F 75% 30.00 in 10.0 mi West 17.3 mph - N/A   Overcast
7:53 AM 25.0 °F 11.7 °F 18.0 °F 75% 30.03 in 6.0 mi West 17.3 mph 24.2 mph 0.00 in Snow Light Snow
8:19 AM 24.8 °F 12.4 °F 19.4 °F 80% 30.01 in 4.0 mi West 15.0 mph - 0.00 in Snow Light Snow
8:53 AM 25.0 °F 11.7 °F 19.9 °F 81% 30.06 in 2.0 mi West 17.3 mph - 0.00 in Snow Light Snow
9:24 AM 24.8 °F 10.7 °F 19.4 °F 80% 30.05 in 3.0 mi West 19.6 mph 25.3 mph 0.00 in Snow Light Snow
9:53 AM 26.1 °F 13.6 °F 19.9 °F 78% 30.09 in 4.0 mi West 16.1 mph 24.2 mph 0.00 in Snow Light Snow
10:53 AM 27.0 °F 12.8 °F 19.9 °F 75% 30.12 in 9.0 mi West 21.9 mph 28.8 mph 0.00 in Snow Light Snow
11:05 AM 26.6 °F 11.7 °F 19.4 °F 74% 30.09 in 9.0 mi West 24.2 mph - 0.00 in   Mostly Cloudy
11:53 AM 28.0 °F 14.6 °F 19.9 °F 72% 30.16 in 10.0 mi West 20.7 mph 29.9 mph 0.00 in   Mostly Cloudy
12:53 PM 28.0 °F 13.9 °F 19.9 °F 72% 30.19 in 10.0 mi West 23.0 mph 27.6 mph N/A   Scattered Clouds
1:25 PM 28.4 °F 14.7 °F 19.4 °F 69% 30.16 in 10.0 mi WNW 21.9 mph 26.5 mph N/A   Mostly Cloudy
1:34 PM 28.4 °F 14.7 °F 19.4 °F 69% 30.16 in 10.0 mi West 21.9 mph - N/A   Scattered Clouds
1:53 PM 28.9 °F 15.4 °F 19.9 °F 69% 30.21 in 10.0 mi West 21.9 mph 26.5 mph N/A   Partly Cloudy
2:17 PM 26.6 °F 13.4 °F 17.6 °F 69% 30.19 in 10.0 mi West 18.4 mph - N/A   Scattered Clouds
2:37 PM 28.4 °F 17.5 °F 19.4 °F 69% 30.20 in 10.0 mi WNW 13.8 mph 24.2 mph N/A   Mostly Cloudy
2:53 PM 28.0 °F 16.5 °F 19.0 °F 69% 30.23 in 10.0 mi West 15.0 mph - N/A   Overcast
3:53 PM 28.0 °F 18.1 °F 18.0 °F 66% 30.25 in 10.0 mi WNW 11.5 mph - N/A   Overcast
4:37 PM 28.4 °F 19.1 °F 19.4 °F 69% 30.23 in 10.0 mi WNW 10.4 mph - N/A   Mostly Cloudy
5:53 PM 27.0 °F 18.0 °F 18.0 °F 69% 30.27 in 10.0 mi NW 9.2 mph - N/A   Clear
6:53 PM 25.0 °F 20.7 °F 17.1 °F 72% 30.29 in 10.0 mi WNW 3.5 mph - N/A   Clear
7:53 PM 25.0 °F - 17.1 °F 72% 30.32 in 10.0 mi Calm Calm - N/A   Clear
8:53 PM 21.9 °F 17.2 °F 17.1 °F 82% 30.34 in 10.0 mi South 3.5 mph - N/A   Clear
9:53 PM 23.0 °F - 19.0 °F 85% 30.37 in 10.0 mi Calm Calm - N/A   Overcast
10:53 PM 23.0 °F 14.7 °F 17.1 °F 78% 30.38 in 10.0 mi SW 6.9 mph - N/A   Clear
11:53 PM 23.0 °F 17.0 °F 17.1 °F 78% 30.37 in 10.0 mi SSW 4.6 mph - N/A   Clear